Zurück zum Katalog

STARLINK-36605

AktivKommunikationSSO
NORAD 67604·PAYLOAD·🇺🇸 United States

Gestartet Jan 29, 2026 von Vandenberg Space Force Base

Loading…

Nächste Überflüge (nächste 24 Stunden)

TLE

AktuellSource: CelesTrak SupGP

Epoche: Sep 14, 2026, 22:53 UTC

1 67604C 26018R   26257.95395833  .00001269  00000+0  39382-4 0  2570
2 67604  97.2856 321.4705 0000897  87.5888 109.5989 15.33437859    12

Verfolge STARLINK-36605 in Echtzeit mit AllMySat

Download on the App Store